Flag for Germany Past Weather in Weiden in der Oberpfalz, Bavaria, Germany — Yesterday and Last 2 Weeks

Now
23 °F

Overcast.


Feels Like: 18 °F
Forecast: 14 / 24 °F
Wind: 3 mph from East

Location: Grafenwoehr

Current Time: Jan 17, 2017 at 10:33:23 pm

Latest Report: Jan 17, 2017 at 9:58 pm


Visibility: N/A

Pressure: 30.66 "Hg

Humidity: 80%

Dew Point: 18 °F

Location of Weiden in der OberpfalzLocation

Past Weather in Weiden in der Oberpfalz — Graph

°F

Weiden in der Oberpfalz Temperature Yesterday

Maximum temperature yesterday: 28 °F (at 1:23 pm)
Minimum temperature yesterday: 12 °F (at 11:58 pm)
Average temperature yesterday: 24 °F

High & Low Weather Summary for the Past Weeks

 TemperatureHumidityPressure
High39 °F (Jan 12, 1:20 pm)100% (Jan 9, 2:21 am)30.83 "Hg (Jan 9, 2:21 am)
Low-8 °F (Jan 7, 2:58 am)64% (Jan 5, 2:16 am)29.25 "Hg (Jan 13, 4:39 am)
Average26 °F86%30.07 "Hg
* Reported Jan 2 8:06 pm — Jan 17 8:58 pm, Weiden in der Oberpfalz, Weather by CustomWeather, © 2017

Note: Actual official high and low records may vary slightly from our data, if they occured in-between our weather recording intervals... More about our weather records

Advertising

Weiden in der Oberpfalz Weather History for the Previous 24 Hours

Scroll right to see more
 ConditionsComfort  
Time TempWeatherWind HumidityBarometerVisibility
8:58 pm
Tue, Jan 17
21 °FOvercast.No wind86%30.67 "HgN/A
7:58 pm21 °FMostly cloudy.No wind86%30.66 "HgN/A
7:35 pm21 °FMostly cloudy.No wind86%30.51 "HgN/A
6:58 pm21 °FMostly cloudy.No wind86%30.65 "HgN/A
6:24 pm23 °FPassing clouds.No wind80%30.50 "HgN/A
5:58 pm25 °FOvercast.No wind74%30.62 "HgN/A
5:09 pm23 °FMostly cloudy.3 mph86%30.48 "HgN/A
4:58 pm25 °FMostly cloudy.No wind80%30.61 "HgN/A
4:34 pm27 °FMostly cloudy.No wind74%30.47 "HgN/A
3:58 pm27 °FOvercast.No wind74%30.60 "HgN/A
2:58 pm27 °FOvercast.5 mph74%30.59 "HgN/A
1:58 pm28 °FMostly cloudy.5 mph69%30.57 "HgN/A
1:34 pm27 °FPartly sunny.6 mph74%30.46 "HgN/A
1:07 pm27 °FScattered clouds.No wind69%30.45 "HgN/A
12:22 pm28 °FLight snow. Scattered clouds.10 mph69%30.45 "HgN/A
11:58 am23 °FSunny.No wind86%30.59 "HgN/A
11:25 am21 °FScattered clouds.No wind86%30.46 "HgN/A
10:44 am18 °FLight snow. Ice fog.No wind86%30.46 "Hg2 mi
10:20 am12 °FLight snow. Ice fog.No wind92%30.46 "Hg3 mi
9:38 am9 °FLight snow. Ice fog.No wind85%30.45 "Hg5 mi
9:12 am5 °FPartly sunny.No wind92%30.44 "HgN/A
7:58 am7 °FPassing clouds.No wind85%30.42 "HgN/A
6:58 am5 °FOvercast.No wind85%30.40 "HgN/A
6:34 am7 °FOvercast.No wind85%30.39 "HgN/A
6:17 am5 °FPassing clouds.No wind85%30.39 "HgN/A
5:58 am7 °FClear.No wind85%30.38 "HgN/A
4:58 am9 °FPassing clouds.No wind85%30.37 "HgN/A
4:27 am10 °FOvercast.No wind85%30.37 "HgN/A
3:58 am9 °FPassing clouds.No wind85%30.36 "HgN/A
3:33 am10 °FPassing clouds.3 mph85%30.36 "HgN/A
2:58 am9 °FOvercast.No wind85%30.36 "HgN/A
2:37 am7 °FPassing clouds.No wind92%30.36 "HgN/A
1:58 am9 °FClear.No wind85%30.35 "HgN/A
12:58 am10 °FPassing clouds.No wind92%30.33 "HgN/A
12:26 am12 °FPassing clouds.No wind85%30.32 "HgN/A
11:58 pm
Mon, Jan 16
12 °FPassing clouds.No wind92%30.32 "HgN/A
10:58 pm14 °FClear.No wind92%30.42 "HgN/A
Weather by CustomWeather, © 2017

See weather overviewHow to use our weather pages